Wind_Speed
12 12 14 15 14 15 15 16 16 16 16 17 17 17 17 18 19 19 14 13 14 14 11 10 8 7 1 1 6 6 4 1 3 5 5 4 5 3 3 4 4 4 4 5 5 8 7
12 12 12 12 11 13 14 15 16 17 17 18 18 18 19 20 21 22 15 15 17 15 11 8 5 4 2 3 3 6 5 1 2 3 4 3 2 1 3 4 1 2 5 8 7 6 5
10 10 9 13 14 15 16 16 17 18 19 19 19 19 19 20 21 23 18 19 17 13 8 4 1 1 2 8 2 4 4 1 1 2 3 2 3 2 3 4 3 3 6 8 5 5 5
7 12 14 15 15 16 17 18 18 19 19 19 19 19 20 21 22 24 18 22 15 8 5 1 2 3 5 5 6 8 5 3 1 1 2 3 3 2 2 4 4 2 2 4 3 7 2
10 13 14 15 15 17 17 18 19 20 21 21 21 20 20 21 21 22 19 20 8 4 1 2 1 2 6 3 5 8 9 2 5 1 1 1 1 2 1 2 4 2 4 4 7 8 4
12 13 15 15 17 18 18 19 20 21 22 23 22 21 20 20 21 19 18 13 3 1 2 1 3 2 2 2 3 5 8 5 3 3 1 1 1 1 1 3 4 4 3 4 5 3 5
13 14 15 15 16 18 19 20 21 22 23 24 24 21 20 18 18 15 18 4 6 2 2 7 3 2 5 6 7 6 6 4 2 1 3 3 2 7 9 9 4 2 2 6 8 5 4
13 13 14 15 17 18 20 21 22 23 24 25 25 22 19 18 14 11 7 5 2 4 9 9 11 5 1 3 0 4 11 4 4 5 4 1 8 8 6 3 4 3 3 8 9 5 2
12 13 15 15 17 19 20 22 23 24 25 26 26 24 19 16 6 7 9 5 2 0 2 6 1 2 2 6 4 6 9 4 6 4 5 6 5 6 4 3 4 5 5 5 6 5 4
12 14 15 17 18 19 21 23 24 25 26 28 28 23 18 17 3 5 4 5 4 2 4 4 2 1 2 0 3 2 14 1 3 4 5 7 5 7 6 6 7 5 5 3 2 4 3
13 14 15 17 19 21 22 24 25 26 28 29 25 20 13 9 5 4 5 6 4 1 5 2 2 1 3 1 1 1 1 3 4 2 2 8 3 4 6 7 8 8 1 4 4 3 2
12 14 16 18 20 22 23 25 27 28 30 29 22 14 8 5 4 3 8 7 0 6 5 1 3 1 1 4 2 3 1 1 3 3 4 9 1 4 7 3 4 1 3 4 3 4 1
13 14 16 18 20 22 24 26 28 30 33 26 13 9 9 6 3 11 9 2 5 4 4 2 2 2 3 4 5 7 5 5 5 3 3 5 5 4 3 1 1 3 4 3 3 1 6
12 14 16 19 21 22 24 26 28 31 33 20 8 9 8 9 10 6 3 4 3 4 4 5 6 7 5 3 5 5 3 3 7 6 2 3 7 7 3 6 5 5 6 5 5 4 4
13 15 18 19 20 23 25 27 29 32 31 15 4 5 4 13 8 2 4 3 6 1 3 7 8 5 3 4 3 3 7 5 5 9 8 2 5 0 3 1 2 3 3 3 1 1 2
12 15 17 20 22 24 27 29 32 33 31 11 3 3 6 14 7 3 4 3 2 3 4 3 2 3 4 5 6 6 3 2 4 5 2 3 5 3 2 1 1 3 1 1 2 2 4
12 14 16 18 21 25 28 31 33 36 31 9 3 3 9 10 5 4 2 4 2 3 5 3 3 5 4 5 5 3 7 3 5 6 5 2 3 3 3 5 7 2 3 4 3 4 4
13 13 15 18 21 25 27 31 33 33 34 14 6 3 9 9 3 0 1 1 1 2 5 3 4 5 5 4 5 5 7 2 7 3 4 4 2 5 9 4 1 4 6 7 4 5 4
12 13 16 18 21 24 28 30 31 30 25 11 3 2 5 5 3 3 6 5 3 1 2 4 4 5 5 3 5 3 3 3 8 4 2 4 3 4 7 2 2 2 4 4 2 1 5
11 14 16 18 21 23 26 30 31 29 21 4 2 4 4 4 2 4 5 5 4 7 2 3 4 5 5 3 4 6 8 3 9 4 4 2 3 5 7 4 3 5 5 3 3 2 2
12 13 15 17 19 22 25 28 32 28 21 2 4 2 2 4 3 5 3 4 6 6 9 7 4 11 6 5 6 5 7 9 8 11 7 2 5 6 10 8 7 13 12 6 6 6 6
11 13 14 16 17 19 22 25 28 32 13 14 3 3 4 4 5 5 6 6 9 8 8 7 7 11 9 8 8 10 7 4 6 8 7 6 4 3 5 6 10 16 14 9 14 12 14
10 11 12 14 15 17 20 22 24 29 22 9 9 7 3 4 6 4 4 7 10 8 5 5 13 10 11 11 5 8 10 12 15 15 7 5 3 4 6 3 6 7 8 14 5 10 4
9 10 11 12 13 15 16 17 20 22 23 12 8 3 3 3 4 3 10 11 12 13 10 12 12 8 6 6 7 8 12 19 21 21 16 8 2 3 4 2 4 1 17 15 19 14 13
8 9 10 12 13 13 14 15 15 16 17 15 9 4 2 2 1 4 12 7 8 7 11 12 4 5 6 5 5 7 6 4 6 11 13 16 9 3 3 7 8 5 10 8 7 8 14
9 9 9 10 12 13 13 14 14 14 14 14 6 6 4 1 2 4 4 3 7 4 5 5 13 14 4 2 3 5 5 9 5 9 5 10 16 8 3 4 4 8 17 17 6 3 14
7 7 8 10 11 12 13 13 14 13 13 12 4 7 1 1 4 1 2 4 4 3 4 5 5 8 4 4 4 5 5 7 4 5 7 6 3 11 9 4 4 14 14 10 3 5 11
6 7 9 10 10 12 12 12 14 13 12 12 10 7 1 2 7 6 3 4 5 2 5 7 6 2 2 3 2 3 2 3 4 5 2 4 5 4 4 7 2 17 6 7 5 8 12
6 7 9 10 9 10 11 12 13 13 12 11 6 12 8 5 7 23 25 28 24 25 6 2 3 3 2 4 1 3 3 3 3 3 4 3 3 3 4 4 6 10 11 11 12 11 11
Wind_Direction
56 54 49 44 37 32 27 20 16 12 6 3 1 1 360 358 356 355 348 342 331 323 316 316 321 323 320 216 247 190 187 118 38 27 10 5 24 25 333 329 1 194 275 299 292 299 273
60 51 43 44 28 23 23 17 14 10 3 0 357 356 354 353 352 351 345 338 330 318 303 299 311 322 324 258 172 183 174 105 65 21 353 39 32 324 263 260 192 257 284 277 273 254 245
53 56 37 32 31 25 22 17 12 7 1 357 355 354 352 350 348 348 340 335 330 322 305 272 243 131 283 241 236 197 181 163 286 359 359 47 33 58 323 286 332 284 311 320 232 222 234
45 37 38 34 30 25 19 12 7 1 357 353 349 347 347 347 346 345 339 335 333 334 320 227 165 144 236 202 188 220 186 228 1 67 11 352 9 304 244 313 316 249 192 335 250 151 214
43 40 37 29 20 18 14 6 3 358 355 350 346 343 342 342 343 344 341 334 330 347 7 147 142 163 277 180 197 225 190 224 173 163 358 332 42 238 302 352 349 265 257 251 325 191 157
42 35 29 23 20 14 10 6 2 359 355 350 346 341 338 339 341 344 345 337 340 13 46 233 277 6 247 251 157 170 194 204 177 181 301 96 151 280 286 116 232 242 273 287 249 234 211
40 33 27 23 17 15 12 8 3 359 355 350 346 340 338 340 341 352 351 356 12 346 216 212 200 230 148 139 157 183 175 152 264 171 235 211 90 222 225 209 227 216 238 255 270 212 238
40 34 33 24 19 14 11 7 2 358 353 348 346 343 337 338 339 7 20 68 118 301 309 262 257 266 147 154 280 229 167 157 170 212 157 16 241 227 209 173 208 225 263 269 278 181 252
45 40 32 25 19 15 10 5 1 356 351 348 346 343 339 338 350 41 68 69 1 271 301 306 132 122 272 141 245 212 151 193 206 225 212 192 239 152 205 242 225 233 211 251 230 320 300
48 38 28 24 19 14 9 5 359 354 351 347 344 342 342 342 120 12 79 6 4 155 40 279 28 42 79 191 249 139 190 224 261 244 234 232 241 223 205 248 180 261 205 216 288 58 253
46 34 29 23 17 12 8 4 359 354 350 348 346 344 352 1 351 51 348 331 327 175 7 270 119 208 99 220 220 184 82 56 239 247 67 252 200 213 228 227 169 234 175 208 199 188 28
41 36 32 25 18 12 7 3 358 353 352 350 347 356 11 31 11 358 321 321 275 47 259 135 135 159 244 194 230 139 152 144 242 286 222 242 282 201 218 252 220 42 345 322 98 118 355
40 35 27 21 15 9 5 0 356 352 352 353 2 25 48 35 340 317 328 36 43 127 314 19 56 187 222 226 218 181 179 188 195 347 278 311 218 210 169 273 223 93 67 315 344 15 225
37 31 23 16 10 5 1 357 354 351 355 1 43 63 55 16 337 335 2 53 127 243 299 13 5 297 227 254 255 186 202 267 235 204 258 205 315 165 170 202 196 182 178 167 226 218 237
34 25 15 12 8 3 1 358 355 354 359 2 56 54 30 356 356 21 73 72 207 272 339 345 333 311 271 39 302 316 214 229 244 187 185 219 265 9 163 311 150 213 186 197 211 326 79
35 27 18 10 9 8 5 3 358 357 0 352 26 31 8 355 359 12 75 222 213 34 5 349 274 286 304 333 344 8 278 315 349 45 297 269 291 206 243 49 237 188 256 95 13 256 253
35 19 18 18 13 9 7 4 2 359 2 10 32 60 360 357 345 43 140 232 327 357 30 338 306 302 296 316 244 268 265 352 356 326 348 317 191 277 110 207 201 130 233 211 170 162 216
31 30 29 20 15 12 8 5 2 4 1 23 340 50 6 1 36 310 239 176 269 327 20 303 273 252 256 314 283 249 240 254 347 315 316 3 248 246 223 253 207 180 206 180 171 252 226
42 35 30 23 17 12 8 5 6 6 8 337 352 285 4 358 72 340 326 322 319 277 48 343 310 35 346 327 326 290 314 75 9 22 65 338 275 300 324 346 332 212 200 210 228 106 217
48 41 30 22 16 13 14 11 9 3 5 352 36 22 341 27 39 51 2 298 326 349 0 342 308 336 348 314 238 293 308 10 336 322 305 156 253 219 233 267 2 260 241 253 178 166 241
43 33 27 27 25 20 20 17 12 12 9 53 23 22 131 331 356 351 341 286 307 348 12 355 325 21 357 305 318 280 359 330 322 315 321 225 253 225 271 286 274 272 267 253 248 225 225
46 38 35 28 24 23 22 19 17 16 28 58 67 27 353 319 314 355 340 12 34 357 4 324 341 352 351 320 302 311 337 348 259 335 340 331 270 300 282 288 276 272 276 253 244 257 260
54 43 37 33 29 24 24 22 23 25 42 66 20 356 87 322 347 13 29 334 326 332 300 344 330 322 315 299 285 266 256 251 253 263 260 285 296 355 271 334 304 287 266 246 233 39 317
57 47 34 29 24 23 21 22 23 27 36 62 30 351 53 327 7 7 351 347 344 334 317 328 318 295 287 316 305 281 258 252 249 249 233 242 221 207 274 331 249 266 27 89 83 53 39
41 36 26 20 17 18 17 18 22 25 24 31 29 42 67 307 283 326 341 315 318 326 320 298 315 318 301 354 315 301 287 298 266 235 228 215 211 254 232 211 276 356 4 319 339 55 21
47 36 21 12 10 14 12 13 15 19 16 12 45 44 82 116 256 306 268 316 311 300 309 300 314 320 297 346 256 269 302 302 300 330 27 230 204 194 179 220 241 357 330 322 240 89 345
41 28 12 8 3 8 9 10 8 7 11 3 10 8 28 220 274 195 283 295 279 303 278 290 334 316 288 221 260 271 277 326 323 26 331 350 3 230 227 255 110 2 353 348 71 329 347
30 16 3 355 357 1 6 3 5 8 7 360 334 10 340 241 272 243 252 241 285 241 278 295 313 338 329 304 271 316 273 203 213 244 252 313 313 3 331 220 240 6 4 50 0 22 15
12 7 358 354 351 354 354 355 354 349 349 349 330 322 310 214 249 289 282 279 262 254 256 217 242 275 261 266 264 260 303 326 5 311 340 13 14 288 257 297 70 12 67 37 19 353 340
Height
849 848 847 846 844 842 840 838 835 832 830 827 823 820 818 815 812 808 806 803 801 799 798 797 796 795 794 794 791 787 788 789 789 788 788 788 789 793 796 793 789 791 786 781 778 780 780
851 850 848 847 845 843 840 837 835 832 830 827 823 820 817 814 811 807 804 802 799 797 795 795 794 794 796 798 786 786 788 789 789 788 788 789 791 791 794 792 792 787 786 783 778 776 775
852 850 849 847 845 843 840 838 835 832 829 826 823 820 817 813 810 806 803 800 797 794 793 792 792 793 795 793 787 787 788 789 789 790 790 790 790 792 793 791 785 785 792 782 775 773 775
853 851 850 848 846 843 840 838 835 832 829 825 822 818 815 812 809 805 801 798 795 793 792 792 792 792 792 786 786 787 788 789 789 789 790 791 791 793 792 788 785 790 791 793 769 772 772
854 852 850 849 846 843 841 838 835 832 828 824 820 817 813 810 807 803 799 796 794 792 792 792 793 793 792 786 785 784 787 788 789 789 790 791 791 793 792 797 800 793 799 788 781 771 774
855 853 851 849 846 844 841 838 834 831 827 823 819 815 812 809 805 801 797 793 792 792 792 793 793 797 790 787 785 786 787 787 787 789 790 792 795 798 799 802 807 796 795 786 786 771 772
856 854 852 850 847 844 841 838 834 831 827 822 817 813 810 806 804 801 796 794 795 794 791 785 783 783 781 780 781 784 786 788 789 790 796 793 800 802 789 787 778 780 785 792 779 767 772
855 855 853 850 848 845 841 838 834 830 826 821 816 811 808 805 803 801 799 801 806 807 799 782 781 782 781 782 785 784 785 791 791 795 791 797 800 781 775 774 778 781 786 789 776 765 767
856 854 853 851 848 844 841 837 833 829 825 820 814 810 806 803 801 802 803 806 806 806 807 783 780 780 782 783 785 784 786 787 789 791 790 797 777 771 773 775 780 783 787 781 777 772 768
857 856 854 851 848 845 841 837 833 828 824 818 813 809 805 801 803 802 804 806 804 804 811 786 784 784 783 783 786 780 782 785 785 788 786 787 771 773 777 779 778 783 767 766 771 783 793
859 857 854 852 849 845 841 837 833 827 822 816 811 807 804 802 804 804 808 805 804 805 844 780 785 781 781 787 785 784 782 784 788 781 783 782 773 774 777 772 770 774 764 767 769 778 784
860 858 855 852 850 847 843 838 833 827 820 814 809 807 804 805 805 806 804 804 804 823 833 781 783 783 784 783 781 783 783 783 783 784 780 778 767 768 768 761 760 763 764 766 771 783 805
862 860 857 854 851 847 843 838 833 827 819 812 808 807 806 806 807 805 804 803 827 844 784 782 782 782 781 781 780 782 785 787 788 792 788 774 768 760 760 767 762 766 779 798 794 799 786
864 862 859 856 853 849 844 839 833 826 818 811 809 808 808 808 807 805 804 811 822 803 790 788 787 783 783 770 774 777 778 785 780 779 788 794 785 764 759 761 764 771 774 794 780 790 775
865 863 862 859 855 850 844 838 832 825 817 812 810 809 809 808 807 805 809 832 819 800 800 799 792 785 782 776 779 773 780 778 769 772 783 779 773 758 757 755 757 761 771 763 773 775 799
865 864 863 860 856 851 846 839 832 823 816 812 810 810 811 810 808 808 814 813 803 800 800 799 801 791 794 791 790 786 777 766 770 768 766 764 776 759 760 757 757 758 761 771 784 780 775
867 865 863 860 857 852 846 840 833 824 817 812 811 813 812 810 809 813 824 817 804 803 803 804 801 800 795 797 787 790 782 776 776 772 768 766 770 767 762 764 759 767 766 764 767 779 775
867 866 864 861 858 853 847 841 836 828 819 813 816 821 812 809 818 820 819 810 807 805 804 804 800 800 800 798 796 789 784 772 781 778 774 773 773 780 764 749 747 750 756 757 769 764 772
868 867 865 862 859 855 849 843 836 831 828 824 825 821 814 813 829 832 822 813 809 807 808 809 809 810 805 803 807 792 780 785 783 780 783 781 778 788 770 756 752 753 749 750 752 759 766
870 868 866 863 861 857 851 845 838 834 828 826 827 831 825 823 829 832 838 827 817 811 810 809 812 811 813 809 805 802 793 790 788 781 776 777 781 775 780 760 759 758 749 748 751 774 762
870 869 868 866 862 860 854 850 844 835 830 828 832 842 842 847 838 839 837 832 828 824 821 816 813 816 823 821 817 808 807 805 794 787 783 779 785 777 767 766 762 757 754 754 755 755 758
870 870 870 868 865 862 858 854 850 842 833 835 847 852 848 850 842 842 840 842 838 835 836 830 829 829 830 829 828 828 826 819 813 802 796 787 783 775 777 765 763 757 749 751 748 745 745
870 870 870 869 867 865 861 859 855 848 841 845 851 851 851 852 852 850 853 848 840 837 833 831 831 832 831 826 825 824 821 816 811 810 807 803 791 788 774 767 764 764 750 742 738 761 755
871 871 871 869 869 865 863 861 859 855 852 853 856 855 858 858 857 858 854 849 848 846 841 837 833 831 825 823 817 814 809 800 794 791 795 798 795 793 790 771 794 751 753 749 765 774 770
872 871 872 872 870 866 864 863 861 859 857 856 857 858 861 866 860 857 854 849 847 844 841 836 830 829 824 823 825 816 804 793 780 780 784 787 797 799 790 779 761 754 773 775 774 784 780
871 871 873 873 871 868 866 864 862 860 858 857 858 859 860 866 859 854 854 850 853 850 844 835 828 823 822 823 825 821 810 802 791 781 775 774 781 789 789 781 765 792 774 766 762 785 785
871 871 872 872 871 868 866 864 862 861 859 857 859 859 859 863 855 851 856 855 850 848 848 839 835 828 822 822 822 816 813 811 806 814 813 799 795 794 787 783 786 786 775 758 774 805 787
871 870 870 871 869 867 865 864 862 860 859 858 857 857 858 858 851 846 847 848 846 848 846 837 838 830 822 823 820 816 820 808 805 799 806 806 804 798 802 785 783 787 780 795 804 797 798
870 868 869 869 868 866 864 862 861 860 859 857 856 855 856 855 848 843 842 839 838 835 839 838 835 833 830 824 824 821 816 816 813 815 797 803 804 810 805 797 803 804 807 810 810 809 804